| time (UTC) | temp F | wind direction | speed knots | gust knots | rain 1hr in | rain 24hr in | rain mn in | humidity % | barometer mb |
| 20260505101825 | 59 | 240 | 0.9 | 4.3 | 0.00 | 0.00 | 0.00 | 70 | 1019.6 |
| 20260505100904 | 59 | 247 | 0.9 | 4.3 | 0.00 | 0.00 | 0.00 | 70 | 1019.5 |
| 20260505100003 | 59 | 243 | 0.0 | 2.6 | 0.00 | 0.00 | 0.00 | 70 | 1019.5 |
| 20260505095404 | 60 | 240 | 0.0 | 2.6 | 0.00 | 0.00 | 0.00 | 70 | 1019.7 |
| 20260505094504 | 60 | 247 | 0.9 | 2.6 | 0.00 | 0.00 | 0.00 | 70 | 1019.6 |
| 20260505093604 | 60 | 238 | 0.9 | 3.5 | 0.00 | 0.00 | 0.00 | 70 | 1019.5 |
| 20260505092704 | 60 | 227 | 0.9 | 3.5 | 0.00 | 0.00 | 0.00 | 69 | 1019.5 |
| 20260505091805 | 60 | 238 | 0.9 | 3.5 | 0.00 | 0.00 | 0.00 | 69 | 1019.5 |
| 20260505090904 | 60 | 235 | 0.9 | 3.5 | 0.00 | 0.00 | 0.00 | 68 | 1019.6 |
| 20260505090005 | 60 | 238 | 0.9 | 4.3 | 0.00 | 0.00 | 0.00 | 68 | 1019.2 |
| 20260505085404 | 60 | 243 | 0.9 | 2.6 | 0.00 | 0.00 | 0.00 | 68 | 1019.3 |
| 20260505084505 | 60 | 223 | 0.9 | 6.1 | 0.00 | 0.00 | 0.00 | 68 | 1019.2 |
| 20260505083604 | 60 | 293 | 0.9 | 2.6 | 0.00 | 0.00 | 0.00 | 67 | 1019.2 |
| 20260505082704 | 60 | 295 | 0.9 | 5.2 | 0.00 | 0.00 | 0.00 | 66 | 1019.1 |
| 20260505081805 | 60 | 293 | 0.0 | 2.6 | 0.00 | 0.00 | 0.00 | 66 | 1018.9 |
| 20260505080904 | 60 | 294 | 0.9 | 3.5 | 0.00 | 0.00 | 0.00 | 65 | 1018.8 |
| 20260505080026 | 60 | 298 | 0.9 | 3.5 | 0.00 | 0.00 | 0.00 | 65 | 1018.6 |
| 20260505075405 | 61 | 292 | 0.9 | 3.5 | 0.00 | 0.00 | 0.00 | 65 | 1018.7 |
| 20260505074504 | 61 | 290 | 1.7 | 6.1 | 0.00 | 0.00 | 0.00 | 65 | 1018.5 |
| 20260505073604 | 61 | 303 | 0.0 | 2.6 | 0.00 | 0.00 | 0.00 | 65 | 1018.4 |
| 20260505072726 | 61 | 312 | 0.0 | 1.7 | 0.00 | 0.00 | 0.00 | 66 | 1018.4 |
| 20260505071804 | 61 | 308 | 0.9 | 3.5 | 0.00 | 0.00 | 0.00 | 66 | 1018.4 |
| 20260505070905 | 61 | 302 | 0.9 | 3.5 | 0.00 | 0.00 | 0.00 | 65 | 1018.2 |
| 20260505070025 | 61 | 292 | 1.7 | 6.1 | 0.00 | 0.00 | 0.00 | 65 | 1018.2 |
| 20260505065405 | 61 | 287 | 1.7 | 7.8 | 0.00 | 0.00 | 0.00 | 65 | 1018.0 |
| 20260505064504 | 61 | 279 | 0.9 | 6.1 | 0.00 | 0.00 | 0.00 | 64 | 1018.0 |
| 20260505063604 | 61 | 287 | 0.9 | 3.5 | 0.00 | 0.00 | 0.00 | 64 | 1018.1 |
| 20260505062704 | 61 | 290 | 1.7 | 6.1 | 0.00 | 0.00 | 0.00 | 64 | 1018.0 |
| 20260505061805 | 61 | 301 | 1.7 | 6.1 | 0.00 | 0.00 | 0.00 | 65 | 1018.0 |
| 20260505060904 | 61 | 292 | 1.7 | 5.2 | 0.00 | 0.00 | 0.00 | 65 | 1017.9 |
| 20260505060025 | 61 | 272 | 1.7 | 6.1 | 0.00 | 0.00 | 0.00 | 65 | 1017.9 |
| 20260505055404 | 62 | 268 | 1.7 | 6.1 | 0.00 | 0.00 | 0.00 | 65 | 1018.0 |
| 20260505054525 | 62 | 242 | 1.7 | 7.0 | 0.00 | 0.00 | 0.00 | 64 | 1017.8 |
| 20260505053604 | 62 | 266 | 0.9 | 4.3 | 0.00 | 0.00 | 0.00 | 65 | 1017.6 |
| 20260505052725 | 61 | 241 | 1.7 | 5.2 | 0.00 | 0.00 | 0.00 | 65 | 1017.5 |
| 20260505051804 | 62 | 228 | 1.7 | 8.7 | 0.00 | 0.00 | 0.00 | 65 | 1017.5 |
| 20260505050904 | 62 | 256 | 1.7 | 7.0 | 0.00 | 0.00 | 0.00 | 66 | 1017.4 |
| 20260505040925 | 62 | 216 | 2.6 | 6.1 | 0.00 | 0.00 | 0.00 | 65 | 1016.9 |
| 20260505040005 | 62 | 214 | 1.7 | 6.1 | 0.00 | 0.00 | 0.00 | 64 | 1017.0 |
| 20260505035404 | 62 | 224 | 1.7 | 7.8 | 0.00 | 0.00 | 0.00 | 64 | 1016.9 |
| 20260505034525 | 62 | 242 | 2.6 | 9.6 | 0.00 | 0.00 | 0.00 | 63 | 1017.0 |
| 20260505033604 | 62 | 230 | 4.3 | 9.6 | 0.00 | 0.00 | 0.00 | 63 | 1017.0 |
| 20260505032704 | 62 | 220 | 4.3 | 8.7 | 0.00 | 0.00 | 0.00 | 62 | 1016.9 |
| 20260505031804 | 62 | 213 | 5.2 | 9.6 | 0.00 | 0.00 | 0.00 | 62 | 1017.0 |
| 20260505030904 | 63 | 204 | 4.3 | 10.4 | 0.00 | 0.00 | 0.00 | 61 | 1016.9 |
| 20260505030004 | 63 | 195 | 5.2 | 12.2 | 0.00 | 0.00 | 0.00 | 60 | 1016.9 |
| 20260505025404 | 64 | 195 | 4.3 | 12.2 | 0.00 | 0.00 | 0.00 | 59 | 1016.8 |
| 20260505024504 | 64 | 224 | 2.6 | 7.0 | 0.00 | 0.00 | 0.00 | 60 | 1016.9 |
| 20260505023605 | 62 | 258 | 1.7 | 6.1 | 0.00 | 0.00 | 0.00 | 62 | 1017.0 |
| 20260505022705 | 62 | 237 | 3.5 | 7.8 | 0.00 | 0.00 | 0.00 | 61 | 1017.1 |
| 20260505021825 | 63 | 232 | 3.5 | 7.8 | 0.00 | 0.00 | 0.00 | 60 | 1017.2 |
| 20260505020905 | 64 | 231 | 3.5 | 9.6 | 0.00 | 0.00 | 0.00 | 59 | 1017.2 |
| 20260505020005 | 63 | 216 | 4.3 | 9.6 | 0.00 | 0.00 | 0.00 | 60 | 1017.2 |
| 20260505015404 | 63 | 204 | 4.3 | 12.2 | 0.00 | 0.00 | 0.00 | 61 | 1017.3 |
| 20260505014504 | 62 | 239 | 2.6 | 8.7 | 0.00 | 0.00 | 0.00 | 62 | 1017.4 |
| 20260505013604 | 61 | 231 | 3.5 | 10.4 | 0.00 | 0.00 | 0.00 | 64 | 1017.4 |
| 20260505012725 | 60 | 228 | 3.5 | 9.6 | 0.00 | 0.00 | 0.00 | 65 | 1017.5 |
| 20260505011805 | 60 | 233 | 3.5 | 11.3 | 0.00 | 0.00 | 0.00 | 65 | 1017.6 |
| 20260505010904 | 60 | 233 | 4.3 | 13.0 | 0.00 | 0.00 | 0.00 | 64 | 1017.6 |
| 20260505010005 | 61 | 270 | 4.3 | 12.2 | 0.00 | 0.00 | 0.00 | 64 | 1017.4 |
| 20260505005404 | 60 | 275 | 4.3 | 11.3 | 0.00 | 0.00 | 0.00 | 63 | 1017.3 |
| 20260505004504 | 60 | 276 | 4.3 | 13.9 | 0.00 | 0.00 | 0.00 | 65 | 1017.5 |
| 20260505003604 | 59 | 243 | 4.3 | 13.0 | 0.00 | 0.00 | 0.00 | 66 | 1017.4 |
| 20260505002704 | 59 | 222 | 5.2 | 13.9 | 0.00 | 0.00 | 0.00 | 68 | 1017.2 |
| 20260505001825 | 59 | 237 | 4.3 | 13.9 | 0.00 | 0.00 | 0.00 | 68 | 1017.2 |
| 20260505000905 | 59 | 240 | 3.5 | 11.3 | 0.00 | 0.00 | 0.00 | 68 | 1017.0 |
| 20260505000025 | 59 | 226 | 4.3 | 13.0 | 0.00 | 0.00 | 0.00 | 70 | 1017.0 |
| 20260504235405 | 59 | 244 | 4.3 | 11.3 | 0.00 | 0.00 | 0.00 | 70 | 1016.9 |
| 20260504234504 | 59 | 234 | 5.2 | 12.2 | 0.00 | 0.00 | 0.00 | 71 | 1017.0 |
| 20260504233604 | 59 | 261 | 3.5 | 7.8 | 0.00 | 0.00 | 0.00 | 72 | 1016.9 |
| 20260504232704 | 58 | 233 | 2.6 | 9.6 | 0.00 | 0.00 | 0.00 | 74 | 1016.9 |
| 20260504231804 | 58 | 245 | 3.5 | 13.9 | 0.00 | 0.00 | 0.00 | 74 | 1016.7 |
| 20260504230904 | 58 | 242 | 3.5 | 8.7 | 0.00 | 0.00 | 0.00 | 76 | 1016.5 |
| 20260504230005 | 57 | 265 | 1.7 | 6.1 | 0.00 | 0.00 | 0.00 | 79 | 1016.5 |
| 20260504225404 | 57 | 255 | 2.6 | 8.7 | 0.00 | 0.00 | 0.00 | 79 | 1016.5 |
| 20260504224526 | 56 | 251 | 1.7 | 9.6 | 0.00 | 0.00 | 0.00 | 81 | 1016.5 |
| 20260504223604 | 56 | 269 | 0.9 | 7.0 | 0.00 | 0.00 | 0.00 | 84 | 1016.4 |
| 20260504222704 | 55 | 279 | 1.7 | 4.3 | 0.00 | 0.00 | 0.00 | 85 | 1016.0 |
| 20260504221804 | 54 | 296 | 1.7 | 5.2 | 0.00 | 0.00 | 0.00 | 86 | 1016.0 |
| 20260504220904 | 54 | 292 | 0.9 | 6.1 | 0.00 | 0.00 | 0.00 | 87 | 1015.9 |
| 20260504220004 | 54 | 299 | 0.9 | 3.5 | 0.00 | 0.00 | 0.00 | 88 | 1015.8 |
| 20260504214504 | 53 | 302 | 0.9 | 3.5 | 0.00 | 0.00 | 0.00 | 88 | 1015.5 |
| 20260504213604 | 53 | 293 | 0.0 | 1.7 | 0.00 | 0.00 | 0.00 | 88 | 1015.5 |
| 20260504212726 | 53 | 293 | 0.0 | 2.6 | 0.00 | 0.00 | 0.00 | 88 | 1015.3 |
| 20260504211804 | 53 | 287 | 0.9 | 3.5 | 0.00 | 0.00 | 0.00 | 88 | 1015.1 |
| 20260504210904 | 53 | 269 | 0.9 | 4.3 | 0.00 | 0.00 | 0.00 | 88 | 1014.9 |
| 20260504210005 | 53 | 268 | 0.0 | 4.3 | 0.00 | 0.00 | 0.00 | 88 | 1014.9 |
| 20260504205425 | 53 | 242 | 0.0 | 4.3 | 0.00 | 0.00 | 0.00 | 88 | 1014.8 |
| 20260504204504 | 54 | 270 | 0.9 | 3.5 | 0.00 | 0.00 | 0.00 | 89 | 1014.8 |
| 20260504203625 | 54 | 273 | 0.0 | 3.5 | 0.00 | 0.00 | 0.00 | 89 | 1014.5 |
| 20260504202725 | 54 | 255 | 0.9 | 4.3 | 0.00 | 0.00 | 0.00 | 89 | 1014.4 |
| 20260504201805 | 54 | 278 | 0.9 | 6.1 | 0.00 | 0.00 | 0.00 | 89 | 1014.3 |
| 20260504200904 | 54 | 287 | 0.9 | 4.3 | 0.00 | 0.00 | 0.00 | 89 | 1014.1 |
| 20260504200005 | 54 | 290 | 1.7 | 6.1 | 0.00 | 0.00 | 0.00 | 89 | 1013.9 |
| 20260504195425 | 54 | 281 | 1.7 | 6.1 | 0.00 | 0.00 | 0.00 | 89 | 1013.8 |
| 20260504194505 | 54 | 283 | 0.9 | 5.2 | 0.00 | 0.00 | 0.00 | 89 | 1013.7 |
| 20260504193604 | 54 | 297 | 0.9 | 5.2 | 0.00 | 0.00 | 0.00 | 88 | 1013.6 |
| 20260504192705 | 54 | 304 | 0.9 | 6.1 | 0.00 | 0.00 | 0.00 | 88 | 1013.5 |
| 20260504191825 | 54 | 302 | 0.9 | 6.1 | 0.00 | 0.00 | 0.00 | 88 | 1013.4 |
| 20260504190925 | 55 | 290 | 0.9 | 3.5 | 0.00 | 0.00 | 0.00 | 88 | 1013.4 |
| 20260504190004 | 55 | 288 | 0.9 | 3.5 | 0.00 | 0.00 | 0.00 | 87 | 1013.2 |
| 20260504185425 | 55 | 284 | 0.9 | 3.5 | 0.00 | 0.00 | 0.00 | 87 | 1013.1 |
| 20260504184504 | 55 | 281 | 1.7 | 6.1 | 0.00 | 0.00 | 0.00 | 86 | 1013.0 |
| 20260504183604 | 55 | 289 | 1.7 | 6.1 | 0.00 | 0.00 | 0.00 | 86 | 1012.9 |
| 20260504182703 | 55 | 292 | 1.7 | 7.8 | 0.00 | 0.00 | 0.00 | 85 | 1012.9 |
| 20260504181804 | 55 | 285 | 0.9 | 7.8 | 0.00 | 0.00 | 0.00 | 85 | 1012.8 |
| 20260504180904 | 55 | 290 | 2.6 | 7.8 | 0.00 | 0.00 | 0.00 | 85 | 1012.5 |
| 20260504180025 | 55 | 289 | 2.6 | 8.7 | 0.00 | 0.00 | 0.00 | 84 | 1012.5 |
| 20260504175405 | 55 | 291 | 2.6 | 7.0 | 0.00 | 0.00 | 0.00 | 84 | 1012.4 |
| 20260504174504 | 55 | 291 | 2.6 | 8.7 | 0.00 | 0.00 | 0.00 | 84 | 1012.4 |
| 20260504173605 | 55 | 294 | 1.7 | 7.0 | 0.00 | 0.00 | 0.00 | 84 | 1012.3 |
| 20260504172725 | 55 | 291 | 1.7 | 6.1 | 0.00 | 0.00 | 0.00 | 84 | 1012.2 |
| 20260504171804 | 55 | 289 | 1.7 | 6.1 | 0.00 | 0.00 | 0.00 | 83 | 1012.1 |
| 20260504170904 | 55 | 292 | 1.7 | 7.8 | 0.00 | 0.00 | 0.00 | 83 | 1012.2 |
| 20260504150904 | 55 | 338 | 1.7 | 4.3 | 0.00 | 0.00 | 0.00 | 81 | 1011.7 |
| 20260504140904 | 57 | 303 | 3.5 | 8.7 | 0.00 | 0.00 | 0.00 | 81 | 1011.2 |